BREEZE-M R/B, 55842

Orbit data source: Space-Track

BREEZE-M R/B, 55842 is space debris in GEO originally from a launch on Sun, 12 Mar 2023 UTC launched from the Tyuratam Missile And Space Complex (TTMTR). Debris objects in space refer to the collection of defunct objects orbiting the Earth. Examples of debris include non-operational satellites, rocket bodies, and fragments generated from explosions, collisions, or faulty payload assembly.

Not visible in the next 10 days
Identifier
55842, 2023-031B
Orbit
GEO
Country
Flag of CISCIS
Related business
Manufacturer
Khrunichev
Mission
Spacecraft
Bus & Motor
BRIZ, Unknown motor
Mass
~1,600 kg wet, 1,600 kg dry
Launch date (UTC)
2023-03-12 (4 years ago)
Launch vehicle
Unknown
Launch site
Tyuratam Missile And Space Complex (TTMTR)
Object type
Payload
Rocket body
Debris
Shape & HBR
Cyl, 2.4 m
Radar Cross Section
15.135 m²

Expand to show TLE details & history
Last TLE update: 1 day ago

TLE from 1 day ago
0 BREEZE-M R/B
1 55842U 23031B   26254.84485108 -.00000291  00000-0  00000+0 0  9992
2 55842   3.0507  78.4929 0067137  13.2871 347.3991  0.98963881 12636
Epoch: 2026-09-11T20:16Z
TLE epoch observation values (Epoch: 2026-09-11T20:16:35.133Z)
Latitude
Longitude
143.99545°
Altitude
35,879.711 km
Speed
3.081 km/s
True Right ascension
05h 16m 01s
True Declination
0° 00' 00"
Sunlit
Object was in daylight at epoch
Visualization orbit readout
Latitude
Unknown
Longitude
Unknown
Altitude
Unknown
Speed
Unknown
Apparent Right ascension
Unknown
Apparent Declination
Unknown
Sunlit
N/A
Visualization observer readout
Local Sidereal Time
18:51:02
Azimuth
Unknown
Elevation
Unknown
Doppler factor
Unknown
Orbital elements
Apogee altitude
36,443.914 km
Perigee altitude
35,872.76 km
Semi-major axis
42,536.474 km
Eccentricity
0.00671
Inclination
3.0507°
RAAN
78.4929°
Arg. of periapsis
13.2871°
True anomaly
347.22988°
Mean anomaly
347.3991°
Eccentric anomaly
347.31463°
Mean motion
0.2474 °/min
Orbital period
1,455.13 mins
BSTAR
0
Loading maneuver chart data...
Computing Atmospheric mass density...
Loading historical data...
Loading historical data...
Loading historical data...
Loading historical data...
Loading historical data...
Loading historical data...
Loading historical data...
Other satellites on launch #31 in the year 2023 (2023-03-12 UTC)

Documentation

Showing up to 5 results
|